Location: Unspecified
(0.0000°N, 0.0000°E)
Time: 09:24:01
(UTC+00:00)

ISS - Pass Details

Date: 12 November 2025
Orbit: 415 x 421 km, 51.6° (Epoch: 12 November)

Event Time Altitude Azimuth Distance (km) Brightness Sun altitude
Exits shadow 04:39:04 27° 249° (WSW) 834 -2.7 -15.5°
Maximum altitude 04:39:29 28° 234° (SW) 815 -2.6 -15.4°
Drops below altitude 10° 04:42:25 10° 173° (S) 1,495 -0.6 -14.7°
Sets 04:44:42 0° 161° (SSE) 2,362 0.6 -14.1°
